{"data":{"norad_id":67122,"intl_designator":"2025-299W","name":"STARLINK-36188","alt_names":[],"object_type":"PAYLOAD","status":"ACTIVE","operator":null,"country":"US","launch_date":"2025-12-15","launch_site_code":"AFETR","launch_vehicle":null,"mission":null,"orbit_class":"UNKNOWN","rcs_meters":null,"size_class":null,"mass_kg":null,"dimensions":null,"purposes":["comms"],"wikipedia_slug":null,"has_3d_model":false,"image_url":null,"decayed_at":null,"tle_current":{"epoch":"2026-05-25T04:36:29.804832Z","epoch_age_seconds":68947,"freshness":"FRESH","line1":"1 67122U 25299W   26145.19201163  .00013510  00000+0  49938-3 0  9991","line2":"2 67122  43.0042  97.1717 0001856 259.1001 100.9642 15.27591036 24819","mean_motion":15.27591036,"eccentricity":0.0001856,"inclination_deg":43.0042,"raan_deg":97.1717,"arg_perigee_deg":259.1001,"mean_anomaly_deg":100.9642,"bstar":0.00049938,"rev_number":2481,"period_min":94.266067688551,"perigee_km":481.74262047825,"apogee_km":484.28948049059,"semimajor_km":6861.1530504844,"source":"CELESTRAK","updated_at":"2026-05-25T13:38:21.477076Z"}}}